Regional Weather Roundup
Issued by NWS

Home | Current Version | Previous Version | Graphics & Text | Print | Product List | Glossary On
Versions: 1 2 3 4 5 6 7 8 9 10 11 12 13 14 15 16 17 18 19 20 21 22 23 24 25 26 27
000
ASUS45 KBOU 172307
RWRCO

WEATHER ROUNDUP FOR COLORADO
NATIONAL WEATHER SERVICE DENVER/BOULDER CO
500 PM MDT TUE OCT 17 2017

NOTE: "FAIR" INDICATES FEW OR NO CLOUDS BELOW 12000 FEET WITH NO
SIGNIFICANT WEATHER AND/OR OBSTRUCTIONS TO VISIBILITY.

COZ001>005-013-030-031-180000-
...NORTHWEST COLORADO...

CITY           SKY/WX    TMP DP  RH WIND       PRES   REMARKS
CRAIG          FAIR      70   6   8 W10       30.22F
HAYDEN         FAIR      66  10  11 W8        30.25F
MEEKER         FAIR      70   4   7 NW9       30.23S
RABBIT EARS PA FAIR      46  10  23 W8        30.46S
STEAMBOAT SPGS FAIR      66   7  10 W5        30.25F
WALDEN         NOT AVBL
$$

COZ006>008-011-180000-
...WEST CENTRAL VALLEYS...

CITY           SKY/WX    TMP DP  RH WIND       PRES   REMARKS
GRAND JUNCTION FAIR      68  15  13 W9        30.20F
MONTROSE       FAIR      68  13  12 N9        30.24F
EAGLE          FAIR      69  10  10 W14       30.25F
RIFLE          FAIR      70   3   7 SW13      30.21F
DELTA          FAIR      72  11   9 S9        30.20F
NUCLA          FAIR      72  -2   5 W6        30.27F
$$

COZ017>023-064>068-180000-
...SOUTHWEST COLORADO...

CITY           SKY/WX    TMP DP  RH WIND       PRES   REMARKS
DURANGO        FAIR      69  11  10 SW15      30.26F
CORTEZ         FAIR      71   0   6 W10       30.25F
PAGOSA SPRINGS FAIR      67   1   7 W6        30.32F
TELLURIDE      NOT AVBL
WOLF CREEK PAS FAIR      46  12  25 SW13G20   30.60F
$$

COZ009-010-012-014-032>034-037-058>063-180000-
...CENTRAL COLORADO...

CITY           SKY/WX    TMP DP  RH WIND       PRES   REMARKS
ASPEN          FAIR      64  10  12 NW8       30.29F
BUENA VISTA    FAIR      68   3   7 S6        30.26F
COPPER MTN     FAIR      50  -9   8 W17G26    30.54S
BERTHOUD PASS  FAIR      37  30  75 NW28      30.54S
COTTONWOOD PAS FAIR      64 -11   4 W8        30.40F
GUNNISON       FAIR      65   6  10 CALM      30.30F
KREMMLING      FAIR      73  -6   4 SW13G18   30.27F
LEADVILLE      FAIR      57  -2   9 NW9       30.40F
MONARCH PASS   FAIR      46   3  17 SW18      30.65F
SALIDA         NOT AVBL
SUNLIGHT       FAIR      50   3  14 SW9G18    30.51F
WILKERSON PASS FAIR      54  -2  10 NW5       30.51S
$$

COZ069>075-180000-
...SAN LUIS VALLEY/SANGRE DE CRISTO MOUNTAINS...

CITY           SKY/WX    TMP DP  RH WIND       PRES   REMARKS
ALAMOSA        FAIR      68   6   9 VRB6      30.28F
DEL NORTE      FAIR      65  15  14 E8        30.31S
LA VETA PASS   FAIR      54   5  14 S18G32    30.53F
SAGUACHE       FAIR      66  12  12 SE9       30.30F
$$

COZ035-036-038>040-180000-
...NORTHERN COLORADO FRONT RANGE...

CITY           SKY/WX    TMP DP  RH WIND       PRES   REMARKS
DENVER INTL AP PTSUNNY   74  12   9 W5        30.10F
DMNS CITY PARK   N/A     75  12   9 E6G13     30.10S
AURORA         PTSUNNY   72  12   9 CALM      30.12F
FRONT RANGE AP PTSUNNY   75  14   9 CALM      30.12F
ERIE MUNI ARPT FAIR      75  11   8 S3        30.13F
BOULDER MUN AP FAIR      73  21  14 SE5       30.08F
CENTENNIAL     PTSUNNY   70   5   8 E3        30.13F
BROOMFIELD     PTSUNNY   72  21  15 S5        30.13S
FORT COLLINS   FAIR      76  23  14 SE5       30.08F
LONGMONT       FAIR      73  20  14 S3        30.09F
$$

COZ041-046-047-076>085-087-088-180000-
...PIKES PEAK/PALMER DIVIDE AND SOUTHERN FOOTHILLS...

CITY           SKY/WX    TMP DP  RH WIND       PRES   REMARKS
COLO. SPRINGS  FAIR      72  14  11 SE12      30.17F
A. F. ACADEMY  FAIR      70   6   8 S5        30.18F
SCHRIEVER AFB  FAIR      69  10  10 SE7       30.18S
CHEYENNE MTN   FAIR      64   9  11 S10       30.16S
ELLICOTT       FAIR     N/A N/A N/A SW7       30.16F
FALCON         FAIR      69   7   9 S5        30.22F
FORT CARSON    FAIR      73   3   6 SE10      30.13F
LIMON          FAIR      71  14  11 S7        30.12F
MONUMENT HILL  FAIR      66  14  13 SE7       30.23S
CANON CITY     SUNNY     79  16   9 E10       30.09F
WALSENBURG     FAIR      77  18  10 SE6       30.14F
TRINIDAD       FAIR      76  15  10 CALM      30.14F
$$

COZ042>045-048>051-090-091-180000-
...NORTHEAST COLORADO...

CITY           SKY/WX    TMP DP  RH WIND       PRES   REMARKS
GREELEY ARPT   FAIR      78  20  11 S7        30.07F
AKRON          FAIR      76  13   9 SW10      30.06F
BURLINGTON     FAIR      77  19  11 S10       30.07F
WRAY           FAIR      79  18  10 S9        30.03F
YUMA           NOT AVBL
STERLING       NOT AVBL
HOLYOKE        FAIR      81  21  11 S8        30.02S
FORT MORGAN    FAIR      76   8   7 SW5       30.06F
$$

COZ086-089-092>099-180000-
...SOUTHEAST COLORADO...

CITY           SKY/WX    TMP DP  RH WIND       PRES   REMARKS
PUEBLO         FAIR      78  10   7 SE8       30.07F
LA JUNTA       FAIR      78  23  13 S6        30.06F
LAMAR          FAIR      79  23  12 S3        30.03F
SPRINGFIELD      N/A     74  31  20 CALM      30.07S
$$




USA.gov is the U.S. government's official web portal to all federal, state and local government web resources and services.